Location: Haliburton Scout Reserve
(45.0900°N, 78.3200°W)
Time: 02:50:40
(UTC-04:00)

NANOSAT C BR1 - Pass Details

Date: 18 May 2022
Orbit: 583 x 601 km, 98.0° (Epoch: 27 June)

Event Time Altitude Azimuth Distance (km) Brightness Sun altitude
Rises 03:32:16 0° 10° (N) 2,825 ? -17.7°
Reaches altitude 10° 03:34:27 10° 8° (N) 1,918 ? -17.4°
Maximum altitude 03:38:35 69° 286° (WNW) 631 ? -17.0°
Enters shadow 03:40:15 34° 213° (SSW) 969 ? -16.8°
